Location: Borgo
(42.3939°N, 9.2791°E)
Time: 02:01:28
(UTC+00:00)

PSLV R/B - Pass Details

Date: 24 January 2021
Orbit: 567 x 598 km, 98.2° (Epoch: 08 March)

Event Time Altitude Azimuth Distance (km) Brightness Sun altitude
Exits shadow 18:06:38 - 10° (N) 2,329 6.8 -18.4°
Reaches altitude 10° 18:07:33 10° 10° (N) 1,947 6.4 -18.6°
Maximum altitude 18:11:46 75° 285° (WNW) 623 4.1 -19.3°
Drops below altitude 10° 18:15:57 10° 200° (SSW) 1,927 6.9 -20.1°
Sets 18:18:06 0° 199° (SSW) 2,822 7.8 -20.5°
